Hourly Data Report for October 12, 2019

SAINT JOHN A
NEW BRUNSWICK
Current Station Operator: NAVCAN

45°18'58.000" N
65°53'24.000" W
108.80 m
8104901
71609
YSJ

Download Data

Hourly Data (October 2019)
Hourly Data Report for October 12, 2019
TIME
LST
Temp Definition
°C
Dew Point Definition
°C
Rel Hum Definition
%
Precip. Amount Definition
mm

Wind Dir Definition
10's deg

Wind Spd Definition
km/h
Visibility Definition
km
Stn Press Definition
kPa
Hmdx Definition


Wind Chill Definition


Weather Definition


00:00 11.4 5.5 67   7 28 19.3 100.97     LegendNANA
01:00 10.8 6.2 73   7 30 24.1 100.92     LegendNANA
02:00 9.6 6.8 83   7 30 24.1 100.84     Cloudy
03:00 9.0 7.9 93   6 25 6.4 100.74     Rain,Fog
04:00 8.9 7.9 93   6 22 4.8 100.66     Rain,Fog
05:00 9.6 8.4 92   4 16 9.7 100.58     Fog
06:00 10.1 8.9 92   4 14 19.3 100.51     LegendNANA
07:00 10.6 9.6 93   4 11 9.7 100.47     Rain,Fog
08:00 10.8 9.9 95   2 16 12.9 100.42     Rain,Fog
09:00 10.9 10.2 96   1 15 16.1 100.38     Drizzle
10:00 11.0 10.3 96   2 16 12.9 100.32     Drizzle,Fog
11:00 11.1 10.6 97   2 22 4.8 100.25     Drizzle,Fog
12:00 12.1 11.6 97   2 16 6.4 100.15     Drizzle,Fog
13:00 12.0 11.4 96   2 20 4.8 100.06     Drizzle,Fog
14:00 12.0 11.4 97   1 18 4.8 99.99     Drizzle,Fog
15:00 11.6 11.0 96   3 20 4.8 99.94     Drizzle,Fog
16:00 10.8 10.2 96   1 18 8.1 99.95     Drizzle,Fog
17:00 10.4 9.9 97   2 20 8.1 99.94     Drizzle,Fog
18:00 10.1 9.6 97   1 23 9.7 99.92     Drizzle,Fog
19:00 10.0 9.5 97   2 16 9.7 99.92     Drizzle,Fog
20:00 9.9 9.5 97   1 15 12.9 99.90     Cloudy
21:00 10.0 9.6 97   2 18 12.9 99.89     LegendNANA
22:00 10.0 9.6 97   36 18 6.4 99.88     Drizzle,Fog
23:00 10.1 9.4 96   1 23 9.7 99.84     Fog

Notes on Data Quality.

Legend

  • E = Estimated
  • M = Missing
  • NA = Not Available*
  • [empty] = Indicates an unobserved value
Date modified: